Location: Wiler
(46.4041°N, 7.7840°E)
Time: 11:06:36
(UTC+00:00)

Cosmos 1833 Rocket - Pass Details

Date: 09 April 2020
Orbit: 834 x 838 km, 71.0° (Epoch: 24 May)

Event Time Altitude Azimuth Distance (km) Brightness Sun altitude
Exits shadow 20:39:09 36° 73° (ENE) 1,314 3.4 -23.6°
Drops below altitude 10° 20:43:01 10° 39° (NE) 2,460 5.2 -24.1°
Sets 20:45:35 0° 32° (NNE) 3,398 6.0 -24.4°
